COSMOS 2251 DEB, 35669

Orbit data source: Space-Track

COSMOS 2251 DEB, 35669 is space debris in LEO originally from a launch on Wed, 16 Jun 1993 UTC launched from the Plesetsk Missile And Space Complex (PKMTR). The debris from Iridium 33, an American commercial communications satellite, has been tracked extensively since its accidental collision with the defunct Russian satellite Cosmos 2251 in 2009. This event, occurring at high speed in low Earth orbit (LEO), generated thousands of pieces of space debris, significantly increasing the risk of further collisions. The Iridium 33 debris cloud has impacted space traffic management and orbital debris mitigation strategies, making it a subject of ongoing study in space situational awareness.

Loading next visibility...
Identifier
35669, 1993-036APL
Orbit
LEO
Country
Flag of CISCIS
Related business
Manufacturer
Unknown
Mission
Spacecraft
Bus & Motor
Unknown
Mass
Unknown
Launch date (UTC)
1993-06-16 (33 years ago)
Launch vehicle
Unknown
Launch site
Plesetsk Missile And Space Complex (PKMTR)
Object type
Payload
Rocket body
Debris
Shape & HBR
Unknown shape, 0.1 m
Radar Cross Section
Small (<0.1 m²)

Expand to show TLE details & history
Last TLE update: 1 week ago

TLE from 1 week ago
0 COSMOS 2251 DEB
1 35669U 93036APL 26154.55934118  .00000662  00000-0  58828-3 0  9992
2 35669  73.8621 237.3614 0386896 319.2461  38.0282 13.57528322631348
Epoch: 2026-06-03T13:25Z
TLE epoch observation values (Epoch: 2026-06-03T13:25:27.077Z)
Latitude
-0.0001°
Longitude
143.98233°
Altitude
825.367 km
Speed
7.551 km/s
True Right ascension
15h 49m 26s
True Declination
0° 00' 00"
Sunlit
Object was in full shadow at epoch
Visualization orbit readout
Latitude
Unknown
Longitude
Unknown
Altitude
Unknown
Speed
Unknown
Apparent Right ascension
Unknown
Apparent Declination
Unknown
Sunlit
N/A
Visualization observer readout
Local Sidereal Time
20:54:07
Azimuth
Unknown
Elevation
Unknown
Doppler factor
Unknown
Orbital elements
Apogee altitude
1,329.507 km
Perigee altitude
755.311 km
Semi-major axis
7,420.546 km
Eccentricity
0.03869
Inclination
73.8621°
RAAN
237.3614°
Arg. of periapsis
319.2461°
True anomaly
40.86628°
Mean anomaly
38.0282°
Eccentric anomaly
39.43633°
Mean motion
3.39539 °/min
Orbital period
106.03 mins
BSTAR
0.00058828

Documentation

Showing up to 5 results
|